Terug naar catalogus

STARLINK-3095

ActiefCommunicatieVLEO
NORAD 49160·PAYLOAD·🇺🇸 United States

Gelanceerd Sep 14, 2021 vanaf Vandenberg Space Force Base

Loading…

Volgende Passages (komende 24 uur)

TLE

VersSource: CelesTrak SupGP

Epoch: Sep 15, 2026, 01:29 UTC

1 49160C 21082AG  26258.06229167 -.00012334  00000+0 -10337-2 0  2587
2 49160  70.0020 176.9620 0003121 272.7313  21.8439 14.98335205    12

Volg STARLINK-3095 in realtime met AllMySat

Download on the App Store